Weather History for Detroit Metro, MI

Change the Weather History Date:

Sunday, May 26, 2013

  Actual Average Record
Temperature  
Mean Temperature 56 °F 63 °F  
Max Temperature 71 °F 73 °F 92 °F (1944)
Min Temperature 41 °F 53 °F 36 °F (1969)
Degree Days  
Heating Degree Days 9 4  
Month to date heating degree days 126 190  
Since 1 July heating degree days 5895 6084  
Cooling Degree Days 0 2  
Month to date cooling degree days 66 28  
Year to date cooling degree days 66 34  
Growing Degree Days 6 (Base 50)    
Moisture  
Dew Point 34 °F    
Average Humidity 50    
Maximum Humidity 76    
Minimum Humidity 23    
Precipitation  
Precipitation 0.00 in 0.11 in 2.56 in (1968)
Month to date precipitation 0.56 2.81  
Year to date precipitation 12.87 11.97  
Snow  
Snow 0.00 in 0.00 in T in (1961)
Month to date snowfall 0.0 0.0  
Since 1 July snowfall 47.7 42.5  
Snow Depth 0.00 in    
Sea Level Pressure  
Sea Level Pressure 30.31 in    
Wind  
Wind Speed 4 mph (NNE)    
Max Wind Speed 12 mph    
Max Gust Speed 18 mph    
Visibility 10 miles    
Events      
T = Trace of Precipitation, MM = Missing Value Source: NWS Daily Summary

Daily Weather History Graph

Daily Weather History Graph

Search for Another Location

Airport:

Trip Planner

Search our weather history database for the weather conditions in past years. The results will help you decide how hot, cold, wet, or windy it might be!

Date:

Astronomy

May. 26, 2013 Rise Set
Actual Time 6:02 AM EDT 8:58 PM EDT
Civil Twilight 5:29 AM EDT 9:31 PM EDT
Nautical Twilight 4:47 AM EDT 10:14 PM EDT
Astronomical Twilight 3:58 AM EDT 11:03 PM EDT
Moon 10:44 PM EDT (5/26) 7:31 AM EDT (5/26)
Length of Visible Light 16h 02m
Length of Day
14h 55m
Waning Gibbous, 97% of the Moon is Illuminated
May 26
Waning Gibbous
May 31
Last Quarter
Jun 8
New
Jun 16
First Quarter
Jun 23
Full

Hourly Weather History & Observations

Time (EDT) Temp. Windchill Dew Point Humidity Pressure Visibility Wind Dir Wind Speed Gust Speed Precip Events Conditions
12:53 AM 48.9 °F - 34.0 °F 56% 30.33 in 10.0 mi North 3.5 mph - N/A   Partly Cloudy
1:53 AM 46.9 °F - 34.0 °F 61% 30.32 in 10.0 mi NNW 4.6 mph - N/A   Scattered Clouds
2:53 AM 44.1 °F 42.5 °F 34.0 °F 68% 30.31 in 10.0 mi NW 3.5 mph - N/A   Scattered Clouds
3:53 AM 44.1 °F 42.5 °F 34.0 °F 68% 30.32 in 10.0 mi WNW 3.5 mph - N/A   Partly Cloudy
4:53 AM 43.0 °F - 35.1 °F 74% 30.32 in 10.0 mi Calm Calm - N/A   Partly Cloudy
5:53 AM 42.1 °F - 35.1 °F 76% 30.33 in 10.0 mi Calm Calm - N/A   Partly Cloudy
6:53 AM 44.1 °F - 37.0 °F 76% 30.36 in 10.0 mi Calm Calm - N/A   Scattered Clouds
7:53 AM 48.0 °F - 37.0 °F 66% 30.35 in 10.0 mi Calm Calm - N/A   Partly Cloudy
8:53 AM 55.0 °F - 30.9 °F 40% 30.35 in 10.0 mi Calm Calm - N/A   Partly Cloudy
9:53 AM 60.1 °F - 30.9 °F 33% 30.36 in 10.0 mi Calm Calm - N/A   Mostly Cloudy
10:53 AM 60.1 °F - 30.0 °F 32% 30.34 in 10.0 mi Calm Calm - N/A   Mostly Cloudy
11:53 AM 63.0 °F - 30.9 °F 30% 30.33 in 10.0 mi Variable 4.6 mph - N/A   Mostly Cloudy
12:53 PM 66.0 °F - 30.9 °F 27% 30.33 in 10.0 mi West 9.2 mph - N/A   Mostly Cloudy
1:53 PM 68.0 °F - 30.9 °F 25% 30.31 in 10.0 mi NNE 6.9 mph - N/A   Mostly Cloudy
2:53 PM 69.1 °F - 30.9 °F 24% 30.30 in 10.0 mi NW 4.6 mph - N/A   Mostly Cloudy
3:53 PM 70.0 °F - 30.9 °F 24% 30.28 in 10.0 mi NNW 9.2 mph - N/A   Mostly Cloudy
4:53 PM 70.0 °F - 32.0 °F 25% 30.27 in 10.0 mi North 9.2 mph - N/A   Overcast
5:53 PM 70.0 °F - 33.1 °F 26% 30.26 in 10.0 mi Variable 3.5 mph - N/A   Overcast
6:53 PM 66.9 °F - 35.1 °F 31% 30.25 in 10.0 mi East 8.1 mph - N/A   Overcast
7:53 PM 64.0 °F - 37.0 °F 37% 30.25 in 10.0 mi East 6.9 mph - N/A   Overcast
8:53 PM 60.1 °F - 37.0 °F 42% 30.25 in 10.0 mi ENE 5.8 mph - N/A   Overcast
9:53 PM 57.9 °F - 35.1 °F 42% 30.27 in 10.0 mi ENE 4.6 mph - N/A   Mostly Cloudy
10:53 PM 55.9 °F - 36.0 °F 47% 30.28 in 10.0 mi ENE 4.6 mph - N/A   Mostly Cloudy
11:53 PM 54.0 °F - 34.0 °F 47% 30.28 in 10.0 mi ENE 5.8 mph - N/A   Mostly Cloudy